[[{"header":{"parameterUnit":"m.s-1","parameterCategory":2,"la1":30.2992,"la2":30.254,"lo1":-89.0895,"lo2":-89.0443,"dy":0.0025,"dx":0.0025,"nx":19,"ny":19,"refTime":"2026-05-19T03:00:00:Z","depth":"0","parameterNumber":2,"parameterNumberName":"U-component_of_CURRENTS"},"data":[0,0,0,-0.0164,-0.0163,-0.0107,-0.0107,0.0052,0.0054,0,0,0,0,0,0,0,0,0,0,0,-0.0179,-0.0178,-0.0164,-0.0163,-0.0107,-0.0107,0.0052,0.0054,0,0,0,0,0,0,0,0,0,0,0,-0.0179,-0.0178,-0.0177,-0.0163,-0.0107,-0.0107,0.0052,-0.0013,0,0,0,0,0,0,0,0,0,0,-0.0079,-0.0105,-0.0178,-0.0177,-0.0162,-0.0107,-0.0107,-0.0017,-0.0009,0.0053,0,0.0068,0,0.0068,0.0067,0.0068,0,0,0,-0.0166,-0.0112,-0.0094,-0.0177,-0.0162,-0.0107,-0.0133,-0.0013,-0.0004,0.0064,0.007,0.0075,0.007,0.0068,0.0069,0.0272,0.0273,0,0,-0.0169,-0.0169,-0.0101,-0.0088,-0.0135,-0.0135,-0.0131,-0.0009,0.0007,0.0071,0.0079,0.0073,0.007,0.0071,0.0272,0.0272,0,0,0,-0.0176,-0.0171,-0.0158,-0.0094,-0.0089,-0.0133,-0.0129,0.0001,0.0007,0.008,0.0075,0.0071,0.0073,0.0271,0.0272,0.0406,0,0,0,-0.0178,-0.0175,-0.0159,-0.0159,-0.0092,-0.0055,-0.0121,-0.0002,0.0011,0.0074,0.0071,0.0075,0.027,0.0271,0.0401,0.0495,0,0,0,-0.0183,-0.0175,-0.0166,-0.0159,-0.0134,-0.0058,-0.0046,0.0,0.0009,0.0068,0.0075,0.0269,0.0271,0.0396,0.0485,0.0701,0,0,0,-0.019,-0.015,-0.0165,-0.0117,-0.0134,-0.0067,-0.0048,0.0013,0.0064,0.0072,0.027,0.0272,0.0394,0.0479,0.0692,0.086,0.0913,0,0,-0.0142,-0.0144,-0.0116,-0.0128,-0.0069,-0.0076,0.002,0.009,0.0115,0.0233,0.0238,0.0403,0.0485,0.0699,0.0966,0.1016,0,0,0,-0.0102,-0.0083,-0.0064,-0.0038,-0.0005,0.0073,0.0093,0.0159,0.0293,0.0155,0.0402,0.0451,0.0583,0.0664,0.0704,0.0827,0.028,0.028,0.028,-0.0039,-0.0035,0.0009,0.0024,0.0082,0.0175,0.0297,0.0392,0.0356,0.0445,0.0559,0.0812,0.0896,0.0929,0.1051,0.0537,0.0538,0.0538,0.0538,0.002,0.0045,0.006,0.0101,0.018,0.028,0.0505,0.0561,0.0813,0.0686,0.0808,0.0797,0.0981,0.1095,0.0547,0.0545,0.0544,0.0544,0.0543,0.006,0.007,0.0069,0.0137,0.0275,0.0405,0.0713,0.0842,0.0979,0.1119,0.1255,0.1254,0.1366,0.1188,0.1189,0.119,0.1192,0.1193,0.1193,0.0095,0.0093,0.0147,0.0208,0.032,0.0543,0.0859,0.1079,0.1377,0.1462,0.1463,0.1486,0.1012,0.1,0.1215,0.1211,0.1208,0.1206,0.1205,0.0189,0.0165,0.0284,0.0366,0.0601,0.0838,0.1065,0.1509,0.1747,0.1938,0.2042,0.1676,0.168,0.1646,0.1649,0.202,0.202,0.202,0.202,0.0267,0.0251,0.0465,0.0653,0.0875,0.1027,0.1427,0.1735,0.2175,0.241,0.2446,0.2308,0.2269,0.2295,0.2247,0.2257,0.2774,0.2775,0.2776,0.037,0.0423,0.0642,0.0784,0.1025,0.1241,0.1516,0.178,0.2444,0.281,0.26,0.2568,0.2351,0.228,0.2288,0.2211,0.2211,0,0]},{"header":{"parameterUnit":"m.s-1","parameterCategory":2,"la1":30.2992,"la2":30.254,"lo1":-89.0895,"lo2":-89.0443,"dy":0.0025,"dx":0.0025,"nx":19,"ny":19,"refTime":"2026-05-19T03:00:00:Z","depth":"0","parameterNumber":3,"parameterNumberName":"V-component_of_CURRENTS"},"data":[0,0,0,-0.0218,-0.0218,-0.0175,-0.0175,-0.0051,-0.005,0,0,0,0,0,0,0,0,0,0,0,-0.0231,-0.0231,-0.0218,-0.0217,-0.0175,-0.0175,-0.0052,-0.005,0,0,0,0,0,0,0,0,0,0,0,-0.0231,-0.0231,-0.0231,-0.0217,-0.0175,-0.0175,-0.0052,-0.0098,0,0,0,0,0,0,0,0,0,0,-0.0146,-0.0176,-0.0231,-0.0231,-0.0217,-0.0175,-0.0175,-0.01,-0.0095,-0.0055,0,-0.0059,0,-0.0057,-0.0042,-0.0041,0,0,0,-0.0203,-0.0181,-0.0169,-0.0231,-0.0217,-0.0175,-0.019,-0.0098,-0.0091,-0.0048,-0.0057,-0.0053,-0.0055,-0.0041,-0.004,0.0146,0.0147,0,0,-0.0205,-0.0217,-0.0174,-0.0166,-0.0217,-0.0192,-0.0189,-0.0094,-0.009,-0.0057,-0.005,-0.0053,-0.004,-0.0039,0.0145,0.0146,0,0,0,-0.0222,-0.0219,-0.0211,-0.017,-0.0171,-0.0191,-0.0188,-0.0094,-0.0092,-0.0049,-0.0051,-0.0039,-0.0038,0.0144,0.0146,0.0318,0,0,0,-0.0222,-0.023,-0.0212,-0.0218,-0.0174,-0.0143,-0.019,-0.0099,-0.0088,-0.0052,-0.0039,-0.0037,0.0143,0.0145,0.031,0.037,0,0,0,-0.0231,-0.023,-0.0229,-0.0219,-0.0207,-0.0145,-0.0137,-0.0097,-0.009,-0.0041,-0.0036,0.0142,0.0144,0.0304,0.0359,0.0516,0,0,0,-0.0238,-0.0246,-0.023,-0.024,-0.0208,-0.0187,-0.0137,-0.0122,-0.009,-0.0039,0.0143,0.0145,0.0302,0.0352,0.0508,0.072,0.0773,0,0,-0.0253,-0.0248,-0.0255,-0.024,-0.0233,-0.0191,-0.0075,-0.0019,-0.0021,0.0116,0.012,0.0313,0.0358,0.0514,0.0869,0.0919,0,0,0,-0.0263,-0.0274,-0.0272,-0.0262,-0.0232,-0.0063,-0.0043,0.0048,0.0202,0.001,0.0317,0.034,0.0434,0.0544,0.0584,0.0503,0.0157,0.0157,0.0157,-0.029,-0.028,-0.0265,-0.0221,-0.0144,0.0014,0.0173,0.0319,0.0266,0.0378,0.0485,0.0721,0.0842,0.0874,0.0787,0.0497,0.0497,0.0498,0.0498,-0.0321,-0.0291,-0.0208,-0.0186,0.002,0.0174,0.0485,0.0542,0.077,0.0668,0.0753,0.0724,0.0928,0.082,0.0509,0.0508,0.0506,0.0505,0.0504,-0.0361,-0.0314,-0.0313,-0.0147,0.0128,0.0387,0.0786,0.0872,0.0937,0.1029,0.1149,0.1147,0.105,0.1076,0.1077,0.1078,0.1079,0.108,0.108,-0.035,-0.0332,-0.0211,-0.0039,0.0194,0.0573,0.0937,0.1113,0.1306,0.1353,0.1355,0.1144,0.0898,0.0872,0.1096,0.1093,0.1091,0.109,0.1089,-0.0264,-0.0232,-0.0043,0.0141,0.0634,0.1101,0.1301,0.1669,0.1749,0.1874,0.1669,0.1551,0.1521,0.1488,0.1477,0.1844,0.1844,0.1844,0.1844,-0.0104,-0.0116,0.0281,0.0633,0.1068,0.1425,0.1984,0.2168,0.2108,0.2085,0.1929,0.1822,0.1795,0.1768,0.1729,0.1716,0.2135,0.2135,0.2135,0.0133,0.0199,0.0588,0.0852,0.1342,0.182,0.236,0.2571,0.2362,0.2124,0.178,0.1768,0.1571,0.1535,0.1447,0.14,0.136,0,0]}],[{"header":{"parameterUnit":"m.s-1","parameterCategory":2,"la1":30.2992,"la2":30.254,"lo1":-89.0895,"lo2":-89.0443,"dy":0.0025,"dx":0.0025,"nx":19,"ny":19,"refTime":"2026-05-19T03:00:00:Z","depth":"2","parameterNumber":2,"parameterNumberName":"U-component_of_CURRENTS"},"data":[0,0,0,-0.0084,-0.0083,-0.0027,-0.0027,0.0047,0.0048,0,0,0,0,0,0,0,0,0,0,0,-0.0098,-0.0098,-0.0084,-0.0082,-0.0027,-0.0027,0.0047,0.0048,0,0,0,0,0,0,0,0,0,0,0,-0.0098,-0.0098,-0.0097,-0.0082,-0.0027,-0.0027,0.0047,0.0005,0,0,0,0,0,0,0,0,0,0,-0.0049,-0.0064,-0.0098,-0.0097,-0.0082,-0.0027,-0.0027,0.0003,0.0008,0.0022,0,0.0034,0,0.004,0.0052,0.0053,0,0,0,-0.0079,-0.0068,-0.0054,-0.0097,-0.0082,-0.0027,-0.0051,0.0006,0.0011,0.0028,0.0035,0.0037,0.0041,0.0053,0.0053,0.0214,0.0215,0,0,-0.0082,-0.0087,-0.0057,-0.005,-0.0063,-0.0053,-0.005,0.0009,0.0017,0.0035,0.0039,0.0042,0.0053,0.0054,0.0212,0.0214,0,0,0,-0.0093,-0.0089,-0.0077,-0.0053,-0.0045,-0.0052,-0.0048,0.0014,0.0018,0.004,0.0043,0.0054,0.0055,0.0211,0.0213,0.0164,0,0,0,-0.0095,-0.0096,-0.0078,-0.008,-0.0046,-0.0015,-0.0043,0.0015,0.0021,0.0043,0.0054,0.0055,0.021,0.0212,0.0162,0.017,0,0,0,-0.0102,-0.0096,-0.0089,-0.008,-0.0058,-0.0016,-0.0008,0.0016,0.0023,0.0053,0.0056,0.0209,0.0212,0.016,0.0168,0.0235,0,0,0,-0.011,-0.0078,-0.0089,-0.005,-0.0059,0.0001,-0.0009,0.004,0.007,0.0054,0.021,0.0213,0.016,0.0166,0.0233,0.0377,0.0399,0,0,-0.0072,-0.0073,-0.005,-0.0059,-0.0008,-0.0007,0.0053,0.0083,0.0123,0.0188,0.0192,0.0162,0.0167,0.0235,0.0546,0.0562,0,0,0,-0.0039,-0.0025,-0.0008,0.0014,0.0046,0.007,0.0101,0.0118,0.0181,0.0153,0.0236,0.0244,0.0286,0.0371,0.0385,0.0227,0.0226,0.0226,0.0226,0.001,0.0016,0.0054,0.0068,0.0099,0.0133,0.0156,0.02,0.0215,0.0254,0.0255,0.035,0.0442,0.0454,0.0303,0.0303,0.0303,0.0303,0.0302,0.0065,0.0091,0.0088,0.0126,0.014,0.0181,0.0212,0.0218,0.0298,0.0291,0.0334,0.0381,0.0467,0.03,0.03,0.0301,0.0301,0.0301,0.0301,0.01,0.0114,0.0125,0.0157,0.0178,0.0197,0.0268,0.0272,0.0299,0.0327,0.0497,0.0499,0.0311,0.0374,0.0375,0.0375,0.0375,0.0375,0.0376,0.014,0.0149,0.0173,0.0188,0.0195,0.0221,0.0316,0.0419,0.053,0.0511,0.0513,0.0377,0.0374,0.0322,0.0381,0.038,0.0379,0.0379,0.0378,0.0211,0.0203,0.0231,0.024,0.0256,0.0331,0.0406,0.0664,0.0758,0.0833,0.0628,0.0621,0.0668,0.0659,0.0618,0.075,0.075,0.075,0.075,0.0262,0.0258,0.031,0.0321,0.0346,0.0388,0.0676,0.091,0.0978,0.0939,0.0931,0.0918,0.09,0.0959,0.0943,0.0906,0.1114,0.1114,0.1115,0.0322,0.0319,0.0383,0.0383,0.0394,0.0507,0.0806,0.1037,0.1089,0.1122,0.0925,0.0788,0.0745,0.0727,0.0795,0.0778,0.0711,0,0]},{"header":{"parameterUnit":"m.s-1","parameterCategory":2,"la1":30.2992,"la2":30.254,"lo1":-89.0895,"lo2":-89.0443,"dy":0.0025,"dx":0.0025,"nx":19,"ny":19,"refTime":"2026-05-19T03:00:00:Z","depth":"2","parameterNumber":3,"parameterNumberName":"V-component_of_CURRENTS"},"data":[0,0,0,-0.0355,-0.0355,-0.033,-0.033,-0.0373,-0.0374,0,0,0,0,0,0,0,0,0,0,0,-0.0365,-0.0365,-0.0355,-0.0355,-0.033,-0.033,-0.0373,-0.0374,0,0,0,0,0,0,0,0,0,0,0,-0.0365,-0.0365,-0.0365,-0.0355,-0.033,-0.033,-0.0373,-0.0372,0,0,0,0,0,0,0,0,0,0,-0.0387,-0.0382,-0.0365,-0.0365,-0.0355,-0.033,-0.033,-0.0371,-0.0372,-0.0406,0,-0.0403,0,-0.0393,-0.0379,-0.0379,0,0,0,-0.0352,-0.0381,-0.0379,-0.0364,-0.0354,-0.033,-0.0341,-0.0371,-0.0373,-0.0408,-0.0403,-0.0404,-0.0393,-0.0379,-0.038,-0.036,-0.036,0,0,-0.0353,-0.0358,-0.0378,-0.038,-0.0351,-0.0341,-0.034,-0.0371,-0.0373,-0.0404,-0.0405,-0.0394,-0.038,-0.038,-0.0361,-0.036,0,0,0,-0.0359,-0.0359,-0.0354,-0.0378,-0.037,-0.0341,-0.0339,-0.0371,-0.0371,-0.0405,-0.0395,-0.038,-0.0381,-0.0362,-0.0361,-0.0467,0,0,0,-0.036,-0.0362,-0.0355,-0.0357,-0.0369,-0.0359,-0.0339,-0.0369,-0.0372,-0.0394,-0.038,-0.0382,-0.0363,-0.0361,-0.0466,-0.05,0,0,0,-0.0365,-0.0362,-0.0361,-0.0357,-0.0348,-0.0358,-0.0359,-0.0368,-0.0366,-0.0379,-0.0382,-0.0363,-0.0362,-0.0465,-0.0498,-0.0471,0,0,0,-0.0368,-0.0371,-0.0361,-0.0363,-0.0348,-0.0343,-0.0358,-0.0353,-0.0361,-0.038,-0.0363,-0.0361,-0.0465,-0.0496,-0.047,-0.0376,-0.0372,0,0,-0.0375,-0.0372,-0.0374,-0.0365,-0.0372,-0.0346,-0.036,-0.0374,-0.0342,-0.036,-0.0359,-0.0466,-0.0498,-0.0471,-0.0273,-0.0272,0,0,0,-0.0378,-0.0387,-0.0384,-0.0387,-0.0374,-0.0384,-0.0376,-0.0379,-0.0381,-0.0338,-0.0399,-0.0414,-0.0395,-0.0334,-0.0333,-0.0352,-0.0353,-0.0353,-0.0353,-0.0397,-0.0399,-0.0416,-0.0423,-0.042,-0.0411,-0.0421,-0.0412,-0.0402,-0.0395,-0.0453,-0.0436,-0.0371,-0.0369,-0.0401,-0.0401,-0.0401,-0.0402,-0.0402,-0.0432,-0.0452,-0.0459,-0.0487,-0.0491,-0.051,-0.0505,-0.0499,-0.0497,-0.0477,-0.0454,-0.0389,-0.0374,-0.0409,-0.0408,-0.0407,-0.0406,-0.0405,-0.0405,-0.0467,-0.0478,-0.0506,-0.0547,-0.0584,-0.0586,-0.0549,-0.0568,-0.0567,-0.0568,-0.0428,-0.0425,-0.0514,-0.0539,-0.0539,-0.0539,-0.0539,-0.0539,-0.0539,-0.049,-0.0514,-0.0557,-0.0605,-0.0628,-0.0638,-0.0573,-0.0504,-0.0472,-0.0499,-0.0497,-0.048,-0.0476,-0.0516,-0.054,-0.0539,-0.0539,-0.0539,-0.0539,-0.0536,-0.0543,-0.0597,-0.0626,-0.0637,-0.0535,-0.0491,-0.033,-0.0303,-0.0291,-0.0434,-0.0437,-0.0379,-0.0377,-0.041,-0.0405,-0.0405,-0.0405,-0.0405,-0.0556,-0.0566,-0.0605,-0.0615,-0.0578,-0.0479,-0.0186,-0.0035,-0.0103,-0.0187,-0.0196,-0.0158,-0.0168,-0.0095,-0.01,-0.0126,-0.0047,-0.0046,-0.0046,-0.0583,-0.0589,-0.0605,-0.0602,-0.0539,-0.0338,0.0007,0.0247,0.0128,-0.003,-0.0123,-0.0383,-0.0351,-0.0358,-0.0264,-0.0264,-0.0313,0,0]}],[{"header":{"parameterUnit":"m.s-1","parameterCategory":2,"la1":30.2992,"la2":30.254,"lo1":-89.0895,"lo2":-89.0443,"dy":0.0025,"dx":0.0025,"nx":19,"ny":19,"refTime":"2026-05-19T03:00:00:Z","depth":"4","parameterNumber":2,"parameterNumberName":"U-component_of_CURRENTS"},"data":[0,0,0,-0.0059,-0.0058,-0.0034,-0.0033,-0.0034,-0.0034,0,0,0,0,0,0,0,0,0,0,0,-0.0068,-0.0068,-0.0059,-0.0058,-0.0034,-0.0033,-0.0034,-0.0034,0,0,0,0,0,0,0,0,0,0,0,-0.0068,-0.0068,-0.0068,-0.0058,-0.0034,-0.0033,-0.0034,-0.0045,0,0,0,0,0,0,0,0,0,0,-0.0065,-0.0069,-0.0068,-0.0068,-0.0058,-0.0034,-0.0033,-0.0045,-0.0044,-0.0054,0,-0.0049,0,-0.0042,-0.0035,-0.0035,0,0,0,-0.0059,-0.007,-0.0062,-0.0068,-0.0057,-0.0034,-0.0045,-0.0044,-0.0043,-0.0053,-0.0049,-0.0049,-0.0042,-0.0035,-0.0035,-0.0005,-0.0004,0,0,-0.006,-0.0066,-0.0063,-0.0062,-0.0051,-0.0045,-0.0044,-0.0043,-0.0044,-0.0049,-0.0049,-0.0042,-0.0035,-0.0035,-0.0005,-0.0005,0,0,0,-0.0063,-0.0067,-0.0058,-0.0062,-0.0055,-0.0045,-0.0043,-0.0044,-0.004,-0.0049,-0.0042,-0.0035,-0.0035,-0.0006,-0.0005,0.0054,0,0,0,-0.0064,-0.0069,-0.0059,-0.0062,-0.0055,-0.0045,-0.0044,-0.0041,-0.004,-0.0042,-0.0035,-0.0035,-0.0006,-0.0005,0.0051,0.0092,0,0,0,-0.0069,-0.0069,-0.0066,-0.0063,-0.0051,-0.0044,-0.0041,-0.004,-0.0036,-0.0035,-0.0035,-0.0006,-0.0005,0.0049,0.0088,0.0157,0,0,0,-0.0077,-0.0064,-0.0066,-0.0052,-0.0052,-0.0034,-0.0041,-0.0032,-0.003,-0.0035,-0.0006,-0.0005,0.0048,0.0085,0.0153,0.0113,0,0,0,-0.0062,-0.0062,-0.0054,-0.0055,-0.0033,-0.0038,-0.0008,-0.001,-0.0017,-0.001,-0.0009,0.0052,0.0087,0.0156,0.017,0,0,0,0,-0.005,-0.0044,-0.0039,-0.0027,-0.0019,0.0014,0.0003,0.001,0.0038,-0.001,0.0056,0.0077,0.0118,0.0084,-0.0,-0.0,-0.0,-0.0001,-0.0001,-0.0028,-0.0025,-0.0003,0.0007,0.0022,0.0043,0.0074,0.0086,0.0058,0.0086,0.0126,0.0223,0.0187,0.012,0.012,0.012,0.012,0.0121,0.0121,0.0001,0.0015,0.0033,0.0058,0.009,0.0118,0.0155,0.0158,0.0223,0.0178,0.0215,0.0149,0.0127,0.0125,0.0125,0.0124,0.0123,0.0123,0.0123,0.001,0.0021,0.0043,0.0092,0.0153,0.0185,0.0273,0.0288,0.0296,0.034,0.0324,0.028,0.0275,0.037,0.037,0.0371,0.0371,0.0372,0.0372,0.0014,0.0037,0.0078,0.0131,0.0179,0.026,0.0351,0.0414,0.0441,0.0407,0.0378,0.0307,0.0299,0.029,0.038,0.0378,0.0377,0.0377,0.0376,0.0017,0.0037,0.0094,0.0142,0.0259,0.0316,0.0405,0.0503,0.0575,0.0595,0.044,0.0435,0.0419,0.0409,0.0402,0.0529,0.0529,0.0529,0,0.002,0.0033,0.0122,0.0204,0.0305,0.0359,0.046,0.0545,0.0556,0.0497,0.0586,0.0407,0.0402,0.0378,0.0369,0.0359,0,0,0,0.0028,0.0057,0.0122,0.0213,0.0322,0.0419,0.0491,0.0504,0.0508,0.061,0.0525,0.0526,0.0514,0.0402,0.0366,0.0356,0.034,0,0]},{"header":{"parameterUnit":"m.s-1","parameterCategory":2,"la1":30.2992,"la2":30.254,"lo1":-89.0895,"lo2":-89.0443,"dy":0.0025,"dx":0.0025,"nx":19,"ny":19,"refTime":"2026-05-19T03:00:00:Z","depth":"4","parameterNumber":3,"parameterNumberName":"V-component_of_CURRENTS"},"data":[0,0,0,-0.0288,-0.0288,-0.0251,-0.0251,-0.0217,-0.0217,0,0,0,0,0,0,0,0,0,0,0,-0.0298,-0.0298,-0.0288,-0.0288,-0.0251,-0.0251,-0.0217,-0.0217,0,0,0,0,0,0,0,0,0,0,0,-0.0299,-0.0298,-0.0298,-0.0287,-0.0251,-0.0251,-0.0217,-0.024,0,0,0,0,0,0,0,0,0,0,-0.0274,-0.0284,-0.0298,-0.0298,-0.0287,-0.0251,-0.0251,-0.0241,-0.0239,-0.0239,0,-0.0233,0,-0.0227,-0.0215,-0.0215,0,0,0,-0.0283,-0.0286,-0.0276,-0.0298,-0.0287,-0.0251,-0.0266,-0.024,-0.0237,-0.0236,-0.0232,-0.0231,-0.0227,-0.0215,-0.0215,-0.0203,-0.0203,0,0,-0.0285,-0.0292,-0.0278,-0.0275,-0.0278,-0.0267,-0.0265,-0.0238,-0.0236,-0.0232,-0.023,-0.0226,-0.0215,-0.0215,-0.0203,-0.0203,0,0,0,-0.0294,-0.0293,-0.0283,-0.0276,-0.027,-0.0266,-0.0264,-0.0237,-0.0233,-0.023,-0.0226,-0.0215,-0.0214,-0.0203,-0.0203,-0.0174,0,0,0,-0.0295,-0.0298,-0.0284,-0.0288,-0.0271,-0.0252,-0.0263,-0.0235,-0.0232,-0.0226,-0.0215,-0.0214,-0.0203,-0.0203,-0.0175,-0.0139,0,0,0,-0.03,-0.0299,-0.0295,-0.0288,-0.0275,-0.0252,-0.0247,-0.0234,-0.023,-0.0215,-0.0214,-0.0203,-0.0203,-0.0175,-0.0141,-0.0125,0,0,0,-0.0308,-0.027,-0.0295,-0.0245,-0.0275,-0.0215,-0.0247,-0.0205,-0.0185,-0.0215,-0.0203,-0.0203,-0.0175,-0.0143,-0.0126,-0.0088,0,0,0,-0.0256,-0.0264,-0.023,-0.0251,-0.0176,-0.022,-0.0171,-0.0167,-0.0194,-0.0212,-0.0211,-0.0174,-0.0141,-0.0125,-0.0095,0,0,0,0,-0.021,-0.0179,-0.016,-0.0128,-0.0113,-0.011,-0.0124,-0.0149,-0.0175,-0.0186,-0.0185,-0.0165,-0.0155,-0.0138,-0.0203,-0.0203,-0.0203,-0.0203,-0.0203,-0.0146,-0.0124,-0.0057,-0.0034,-0.0015,-0.0035,-0.004,-0.0086,-0.0131,-0.0155,-0.0149,-0.0125,-0.0108,-0.0172,-0.0172,-0.0172,-0.0171,-0.0171,-0.0171,-0.0041,-0.0004,0.0016,0.0079,0.0057,0.0064,0.0016,-0.0032,-0.0082,-0.0132,-0.0126,-0.0119,-0.0169,-0.0169,-0.017,-0.017,-0.017,-0.017,-0.017,0.0009,0.0024,0.0058,0.0111,0.0128,0.0091,0.0089,0.0027,-0.0039,-0.0037,-0.0045,-0.01,-0.0092,-0.0059,-0.0059,-0.0059,-0.0059,-0.0059,-0.0058,0.0012,0.0057,0.0077,0.0135,0.0136,0.0134,0.0107,0.0097,0.0042,0.0009,-0.0042,-0.0087,-0.0091,-0.0085,-0.0055,-0.0056,-0.0056,-0.0056,-0.0057,0.0024,0.0021,0.0061,0.0072,0.0116,0.0145,0.0141,0.015,0.0142,0.0137,0.0036,0.003,0.0029,0.0022,0.0032,0.0098,0.0099,0.0099,0,-0.0018,0.0003,0.0002,0.0024,0.0083,0.0135,0.0172,0.0186,0.0148,0.0122,0.012,0.0002,-0.0001,-0.0007,-0.0012,-0.0002,0,0,0,-0.007,-0.0056,-0.0085,-0.0029,0.0051,0.0139,0.018,0.0177,0.0147,0.0199,0.0116,0.0111,0.0067,-0.0045,-0.0061,-0.0065,-0.0057,0,0]}]]